Location: Boiro
(42.6475°N, 8.8834°W)
Time: 23:54:12
(UTC+01:00)

Altair - Pass Details

Date: 05 December 2021
Orbit: 1501 x 1683 km, 47.2° (Epoch: 18 January)

Event Time Altitude Azimuth Distance (km) Brightness Sun altitude
Rises 00:33:58 0° 293° (WNW) 4,645 10.3 -67.0°
Enters shadow 00:34:41 - 291° (WNW) 4,439 10.2 -67.1°
Reaches altitude 10° 00:37:34 10° 282° (WNW) 3,654 - -67.3°
Maximum altitude 00:44:44 27° 230° (SW) 2,584 - -68.0°
Drops below altitude 10° 00:51:58 10° 177° (S) 3,670 - -68.5°
Sets 00:55:38 0° 166° (SSE) 4,669 - -68.8°
